Regional Weather Roundup
Issued by NWS Kansas City/Pleasant Hill, MO

Home | Current Version | Previous Version | Graphics & Text | Print | Product List | Glossary Off
Versions: 1 2 3 4 5 6 7 8 9 10 11 12 13 14 15 16 17 18 19 20 21 22 23 24 25 26 27 28 29 30 31 32 33 34 35 36 37 38 39 40 41 42 43 44 45 46 47 48 49 50

000
ASUS43 KEAX 181704
RWREAX

WEATHER ROUNDUP FOR EASTERN KANSAS AND NORTHWEST MISSOURI
NATIONAL WEATHER SERVICE KANSAS CITY/PLEASANT HILL MO
1100 AM CST THU DEC 18 2014

KSZ040-057-103>105-MOZ028-029-037-043-181800-
...KANSAS CITY METROPOLITAN AREA...

CITY           SKY/WX    TMP DP  RH WIND       PRES   REMARKS
K.C. INTL      LGT SNOW  31  27  85 E9        30.24S FOG     WCI  23
K.C. DOWNTOWN  CLOUDY    31  28  89 E8        30.25S FOG     WCI  23
LEES SUMMIT    CLOUDY    31  28  89 E7        30.24S FOG     WCI  24
OLATHE - IXD   CLOUDY    31  28  89 E6        30.23S FOG     WCI  25
OLATHE - OJC   CLOUDY    32  29  88 E6        30.22S FOG     WCI  26
LAWRENCE       CLOUDY    31  27  85 E7        30.25S FOG     WCI  24

$$

MOZ001>008-011>017-020>025-030>033-038>040-044>046-053-054-181800-
...NORTHERN AND CENTRAL MISSOURI...

CITY           SKY/WX    TMP DP  RH WIND       PRES   REMARKS
ST. JOSEPH     LGT SNOW  29  26  89 E5        30.27S FOG     WCI  24
MOSBY          LGT SNOW  32  30  93 E6        30.26S WCI  26
WARRENSBURG    LGT SNOW  32  30  93 NE5       30.25S WCI  27
WHITEMAN AFB   LGT SNOW  32  30  91 E3        30.24S FOG
CLINTON        CLOUDY    34  32  93 E6        30.25R FOG     WCI  29
SEDALIA        LGT SNOW  32  30  92 E8        30.25F FOG     WCI  25
WARSAW         NOT AVBL
MARSHALL       LGT SNOW  32  30  93 E7        30.27  WCI  26
CHILLICOTHE      N/A     30  25  81 E6        30.29R WCI  24
KIRKSVILLE     CLOUDY    27  25  92 E5        30.28F WCI  22

$$

MOZ041-047>049-056>058-063>065-088>090-097-181800-
...EASTERN AND SOUTHERN MISSOURI...

CITY           SKY/WX    TMP DP  RH WIND       PRES   REMARKS
ST. LOUIS INTL FLURRIES  33  26  75 VRB3      30.30F
SPIRIT OF STL  LGT SNOW  30  28  92 NE6       30.29F FOG     WCI  24
COLUMBIA       CLOUDY    31  28  89 E9        30.25F FOG     WCI  23
JEFFERSON CITY LGT SNOW  32  29  88 E6        30.28S FOG     WCI  26
MEXICO         CLOUDY    32  32 100 E6        30.28  FOG     WCI  26
ROLLA          LGT SNOW  31  29  92 E8        30.22F FOG     WCI  23
LEBANON        CLOUDY    34  32  93 SE7       30.21F WCI  28
OSAGE BEACH    CLOUDY    34  30  86 E6        30.23F WCI  29
SPRINGFIELD    CLOUDY    35  34  96 S8        30.19S WCI  29
BRANSON        CLOUDY    37  36  93 SE8       30.20F WCI  31
NEVADA         CLOUDY    34  32  93 CALM      30.23F FOG
JOPLIN         CLOUDY    38  36  92 CALM      30.21S FOG
WEST PLAINS    CLOUDY    34  32  92 SE6       30.23S FOG     WCI  29

$$

IAZ060-094-KSZ022-034>040-054-083-096-NEZ052-066-093-181800-
...KANSAS...SOUTHEAST NEBRASKA AND IOWA...

CITY           SKY/WX    TMP DP  RH WIND       PRES   REMARKS
TOPEKA         CLOUDY    32  28  85 CALM      30.26R FOG
MANHATTAN      CLOUDY    30  27  88 CALM      30.24S
EMPORIA        CLOUDY    29  29 100 NE5       30.21S FOG     WCI  24
CHANUTE        CLOUDY    33  33 100 CALM      30.22R FOG
WICHITA        CLOUDY    33  30  88 CALM      30.20S FOG
OMAHA          LGT SNOW  28  24  85 S6        30.27S FOG     WCI  22
LINCOLN        CLOUDY    29  25  85 S5        30.25F WCI  24
FALLS CITY     CLOUDY    29  26  89 E6        30.26S WCI  23
LAMONI         LGT SNOW  27  23  85 E3        30.26S FOG
DES MOINES     CLOUDY    27  18  69 CALM      30.29S

$$




USA.gov is the U.S. government's official web portal to all federal, state and local government web resources and services.